Charleston, SC

12:32 PM EST on February 25, 2017 (GMT -0500)
Charleston Executive

Weather History for KJZI - February, 2013

Change the Weather History Date:

Wednesday, February 13, 2013

  Actual Average (KCHS) Record (KCHS)
Temperature  
Mean Temperature 62 °F -  
Max Temperature 73 °F 59 °F 78 °F (1976)
Min Temperature 51 °F 37 °F 22 °F (1955)
Degree Days  
Heating Degree Days 3    
Growing Degree Days 12 (Base 50)    
Moisture  
Dew Point 54 °F    
Average Humidity 81    
Maximum Humidity 100    
Minimum Humidity 38    
Precipitation  
Precipitation 0.25 in - - ()
Sea Level Pressure  
Sea Level Pressure 29.80 in    
Wind  
Wind Speed 8 mph (WSW)    
Max Wind Speed 26 mph    
Max Gust Speed 40 mph    
Visibility 7 miles    
Events Fog , Rain , Thunderstorm    
Averages and records for this station are not official NWS values.
T = Trace of Precipitation, MM = Missing Value Source: NWS Daily Summary

Daily Weather History Graph

Daily Weather History Graph

Search for Another Location

Airport or City:

Trip Planner

Search our weather history database for the weather conditions in past years. The results will help you decide how hot, cold, wet, or windy it might be!

Date:

Astronomy

Feb. 13, 2013 Rise Set
Actual Time 7:04 AM EST 6:04 PM EST
Civil Twilight 6:39 AM EST 6:29 PM EST
Nautical Twilight 6:10 AM EST 6:58 PM EST
Astronomical Twilight 5:41 AM EST 7:27 PM EST
Moon 8:48 AM EST (2/13) 9:48 PM EST (2/13)
Length of Visible Light 11h 49m
Length of Day
10h 59m
Waxing Crescent, 13% of the Moon is Illuminated
Feb 13
Waxing Crescent
Feb 17
First Quarter
Feb 25
Full
Mar 4
Last Quarter
Mar 11
New

Hourly Weather History & Observations

Time (EST) Temp. Dew Point Humidity Pressure Visibility Wind Dir Wind Speed Gust Speed Precip Events Conditions
12:15 AM 53.6 °F 53.6 °F 100% 29.89 in 6.0 mi ENE 6.9 mph - 0.00 in   Overcast
12:35 AM 53.6 °F 53.6 °F 100% 29.89 in 5.0 mi NE 10.4 mph - 0.01 in Rain Rain
12:55 AM 53.6 °F 53.6 °F 100% 29.89 in 5.0 mi North 5.8 mph - 0.02 in   Light Drizzle
1:15 AM 53.6 °F 53.6 °F 100% 29.87 in 2.5 mi North 8.1 mph - 0.07 in Rain Rain
1:35 AM 53.6 °F 51.8 °F 94% 29.83 in 2.0 mi NE 16.1 mph - 0.12 in Rain Light Rain
1:55 AM 53.6 °F 53.6 °F 100% 29.85 in 2.5 mi NNE 8.1 mph - 0.15 in Rain Heavy Rain
2:15 AM 53.6 °F 51.8 °F 94% 29.86 in 2.0 mi NE 8.1 mph - 0.05 in   Light Drizzle
2:35 AM 53.6 °F 51.8 °F 94% 29.84 in 3.0 mi NE 4.6 mph - 0.06 in   Overcast
2:55 AM 53.6 °F 51.8 °F 94% 29.84 in 10.0 mi Calm Calm - 0.07 in   Light Drizzle
3:15 AM 51.8 °F 51.8 °F 100% 29.83 in 3.0 mi NE 10.4 mph - 0.01 in Rain Light Rain
3:35 AM 51.8 °F 51.8 °F 100% 29.80 in 10.0 mi ENE 9.2 mph - 0.01 in   Overcast
3:55 AM 51.8 °F 51.8 °F 100% 29.79 in 10.0 mi East 11.5 mph - 0.01 in   Overcast
4:15 AM 51.8 °F 51.8 °F 100% 29.78 in 9.0 mi East 11.5 mph - 0.00 in   Overcast
4:35 AM 53.6 °F 51.8 °F 94% 29.77 in 6.0 mi ENE 8.1 mph - 0.00 in   Overcast
4:55 AM 53.6 °F 53.6 °F 100% 29.77 in 6.0 mi ENE 6.9 mph - 0.00 in Thunderstorm Overcast
5:15 AM 53.6 °F 53.6 °F 100% 29.77 in 6.0 mi Calm Calm - 0.00 in   Overcast
5:35 AM 55.4 °F 53.6 °F 94% 29.78 in 5.0 mi South 5.8 mph - 0.00 in   Overcast
5:55 AM 55.4 °F 53.6 °F 94% 29.75 in 5.0 mi East 3.5 mph - 0.00 in Thunderstorm Overcast
6:15 AM 55.4 °F 55.4 °F 100% 29.77 in 5.0 mi Calm Calm - 0.00 in   Overcast
6:35 AM 57.2 °F 55.4 °F 94% 29.77 in 5.0 mi Calm Calm - 0.00 in   Overcast
6:55 AM 55.4 °F 55.4 °F 100% 29.77 in 5.0 mi Calm Calm - 0.00 in   Overcast
7:15 AM 55.4 °F 55.4 °F 100% 29.79 in 4.0 mi Calm Calm - 0.00 in   Overcast
7:35 AM 55.4 °F 53.6 °F 94% 29.79 in 3.0 mi North 3.5 mph - 0.00 in   Overcast
7:55 AM 53.6 °F 53.6 °F 100% 29.78 in 0.8 mi Calm Calm - 0.00 in   Overcast
8:35 AM 55.4 °F 55.4 °F 100% 29.80 in 0.2 mi Calm Calm - 0.00 in Fog Fog
8:55 AM 57.2 °F 55.4 °F 94% 29.80 in 0.2 mi Calm Calm - 0.00 in Fog Fog
9:15 AM 57.2 °F 57.2 °F 100% 29.81 in 0.2 mi Calm Calm - 0.00 in Fog Fog
9:35 AM 59.0 °F 59.0 °F 100% 29.80 in 0.2 mi South 6.9 mph - 0.00 in Fog Fog
9:55 AM 60.8 °F 60.8 °F 100% 29.81 in 0.2 mi SW 5.8 mph - 0.00 in Fog Fog
10:15 AM 62.6 °F 62.6 °F 100% 29.81 in 8.0 mi SW 6.9 mph - 0.00 in   Overcast
10:35 AM 64.4 °F 64.4 °F 100% 29.80 in 10.0 mi SSW 6.9 mph - 0.00 in   Overcast
11:15 AM 68.0 °F 64.4 °F 88% 29.80 in 10.0 mi WSW 12.7 mph 18.4 mph 0.00 in   Overcast
11:35 AM 69.8 °F 64.4 °F 83% 29.78 in 10.0 mi SSW 11.5 mph 16.1 mph 0.00 in   Mostly Cloudy
11:55 AM 69.8 °F 64.4 °F 83% 29.78 in 9.0 mi SSW 10.4 mph 16.1 mph 0.00 in   Overcast
12:15 PM 69.8 °F 64.4 °F 83% 29.77 in 10.0 mi SSW 11.5 mph - 0.00 in   Mostly Cloudy
12:35 PM 69.8 °F 64.4 °F 83% 29.77 in 10.0 mi SW 8.1 mph 19.6 mph 0.00 in   Mostly Cloudy
12:55 PM 69.8 °F 64.4 °F 83% 29.75 in 10.0 mi SSW 13.8 mph 19.6 mph 0.00 in   Overcast
1:15 PM 69.8 °F 62.6 °F 78% 29.75 in 7.0 mi SSW 10.4 mph 20.7 mph 0.00 in   Mostly Cloudy
1:35 PM 69.8 °F 64.4 °F 83% 29.73 in 8.0 mi SSW 9.2 mph - 0.00 in   Mostly Cloudy
1:55 PM 71.6 °F 64.4 °F 78% 29.72 in 10.0 mi SSW 11.5 mph - 0.00 in   Mostly Cloudy
2:15 PM 69.8 °F 64.4 °F 83% 29.72 in 9.0 mi SSW 12.7 mph 18.4 mph 0.00 in   Partly Cloudy
2:35 PM 69.8 °F 64.4 °F 83% 29.72 in 7.0 mi SSW 11.5 mph 20.7 mph 0.00 in   Scattered Clouds
2:55 PM 69.8 °F 64.4 °F 83% 29.72 in 7.0 mi SSW 10.4 mph 17.3 mph 0.00 in   Mostly Cloudy
3:15 PM 68.0 °F 64.4 °F 88% 29.73 in 5.0 mi SW 10.4 mph - 0.00 in   Mostly Cloudy
3:35 PM 71.6 °F 64.4 °F 78% 29.72 in 8.0 mi SW 9.2 mph - 0.00 in   Partly Cloudy
3:55 PM 73.4 °F 62.6 °F 69% 29.72 in 10.0 mi WSW 8.1 mph - 0.00 in   Clear
4:15 PM 71.6 °F 62.6 °F 73% 29.73 in 10.0 mi Calm Calm - 0.00 in   Clear
4:35 PM 73.4 °F 53.6 °F 50% 29.75 in 10.0 mi West 10.4 mph 16.1 mph 0.00 in   Scattered Clouds
4:55 PM 71.6 °F 46.4 °F 41% 29.76 in 10.0 mi West 12.7 mph 24.2 mph 0.00 in   Mostly Cloudy
5:15 PM 71.6 °F 46.4 °F 41% 29.77 in 10.0 mi West 17.3 mph 27.6 mph 0.00 in   Mostly Cloudy
5:35 PM 69.8 °F 42.8 °F 38% 29.78 in 10.0 mi WSW 17.3 mph 25.3 mph 0.00 in   Mostly Cloudy
5:55 PM 68.0 °F 44.6 °F 43% 29.79 in 9.0 mi West 26.5 mph 40.3 mph 0.00 in   Drizzle
6:15 PM 66.2 °F 44.6 °F 46% 29.80 in 10.0 mi West 15.0 mph 26.5 mph 0.00 in   Overcast
6:35 PM 66.2 °F 44.6 °F 46% 29.80 in 10.0 mi West 10.4 mph 20.7 mph 0.00 in   Mostly Cloudy
6:55 PM 64.4 °F 44.6 °F 49% 29.81 in 10.0 mi West 17.3 mph 26.5 mph 0.00 in   Overcast
7:15 PM 64.4 °F 44.6 °F 49% 29.80 in 10.0 mi West 13.8 mph 20.7 mph 0.00 in   Overcast
7:35 PM 64.4 °F 44.6 °F 49% 29.80 in 10.0 mi West 16.1 mph 24.2 mph 0.00 in   Overcast
7:55 PM 64.4 °F 44.6 °F 49% 29.80 in 10.0 mi WSW 9.2 mph 19.6 mph 0.00 in   Mostly Cloudy
8:15 PM 64.4 °F 44.6 °F 49% 29.81 in 10.0 mi WSW 10.4 mph - 0.00 in   Overcast
8:35 PM 64.4 °F 46.4 °F 52% 29.82 in 10.0 mi West 8.1 mph 23.0 mph 0.00 in   Overcast
8:55 PM 64.4 °F 46.4 °F 52% 29.82 in 10.0 mi WSW 8.1 mph - 0.00 in   Overcast
9:15 PM 62.6 °F 46.4 °F 55% 29.82 in 10.0 mi WNW 10.4 mph 17.3 mph 0.00 in   Overcast
9:35 PM 60.8 °F 46.4 °F 59% 29.87 in 10.0 mi West 26.5 mph 33.4 mph 0.00 in   Overcast
9:55 PM 57.2 °F 48.2 °F 72% 29.84 in 10.0 mi West 17.3 mph 26.5 mph 0.00 in   Overcast
10:15 PM 55.4 °F 50.0 °F 82% 29.87 in 6.0 mi West 11.5 mph 21.9 mph 0.00 in   Light Drizzle
10:35 PM 55.4 °F 51.8 °F 88% 29.87 in 10.0 mi West 8.1 mph - 0.00 in   Scattered Clouds
10:55 PM 55.4 °F 50.0 °F 82% 29.89 in 10.0 mi West 10.4 mph - 0.00 in   Clear
11:15 PM 53.6 °F 50.0 °F 88% 29.87 in 10.0 mi West 13.8 mph 18.4 mph 0.00 in   Clear
11:35 PM 53.6 °F 48.2 °F 82% 29.87 in 10.0 mi WNW 13.8 mph 21.9 mph 0.00 in   Clear
11:55 PM 53.6 °F 48.2 °F 82% 29.89 in 10.0 mi West 9.2 mph 20.7 mph 0.00 in   Clear